Vertical_Velocity
-0 1 -4 -5 -3 -2 1 2 1 -5 -5 -3 -2 -0 -3 -1 3 1 -0 3 -1 -4 -4 5 -1 2 -2 -2 -2 -2 -4 1 2 3 -0 2 -7 -6 -9 -5 3 -6 -1 -2
3 -4 -7 -0 1 2 1 2 -6 -6 -0 -0 -1 -3 -1 -0 -4 -4 -3 0 -3 3 -5 0 -3 1 -2 -6 -2 -0 0 -5 -3 -4 -8 -2 -4 -1 0 -1 -7 -10 2 9
-3 -9 2 2 1 5 -2 2 -2 -1 -2 -1 -0 -4 1 -1 2 0 1 2 7 -6 -5 -3 -5 -3 -0 -5 -6 -3 -3 -2 -5 -1 6 5 9 8 5 -6 -5 -3 9 1
-3 -10 1 2 -0 1 3 -2 1 1 -1 -5 -5 -7 -0 -0 -1 1 -1 1 -2 -4 2 3 -1 -5 -7 -1 -1 -0 0 -2 -1 1 2 -1 -3 -10 -7 -5 0 -1 -6 -6
-17 1 2 5 -15 2 -16 4 0 0 0 -1 -3 -3 -12 1 1 -1 -1 -1 0 -1 -7 -10 -8 -5 -6 -1 -2 0 0 0 2 -4 1 -3 -1 1 2 -1 -2 -3 3 0
-9 -3 -1 -10 -4 -0 -4 3 -1 -1 -1 -1 -4 -2 -6 -2 -7 0 1 1 -4 -3 -3 5 3 2 1 3 0 -2 -3 -3 -1 -1 -1 -0 -3 -3 0 -1 -5 -3 -6 -1
3 -6 -3 4 5 -1 5 -2 -3 -5 -4 -7 -1 2 -11 -4 -3 -5 -5 -4 -2 2 1 -2 -6 -7 -2 -5 -4 0 -3 -7 -3 1 1 1 -0 1 -3 -5 -6 -1 -1 -4
-1 1 3 -7 -8 -8 -2 -7 -7 -4 -2 -5 -1 -3 -16 -3 -1 2 1 -8 4 4 1 -6 -7 -5 -3 -2 -4 -3 -4 -4 -5 -2 -3 -5 -5 -6 -2 4 6 4 -5 3
1 -3 -2 1 -1 -4 -4 -2 -11 -3 -1 -2 -3 -9 -8 -1 0 0 1 6 1 4 -1 -7 0 -4 -1 -3 -7 -10 -6 -3 -6 -1 -5 -7 1 1 0 4 2 15 14 7
-7 -2 -3 -15 4 0 -10 -7 -7 -3 -2 -1 -3 -1 -7 -2 -0 -0 2 -1 -2 5 7 5 4 -3 -1 1 8 12 5 -5 -1 0 -4 1 1 -1 -3 10 3 4 4 4
-1 -1 -9 6 -0 -4 2 2 -1 -8 -5 -6 -1 -9 -5 -4 -2 -2 -1 -1 -3 -4 -6 -4 -2 1 1 13 9 7 4 4 -2 6 18 15 -4 18 6 7 8 13 26 -19
-10 -4 0 -14 -4 -3 -3 -4 -4 -2 -2 -2 -5 -15 -0 -2 -2 1 -2 2 -3 -4 -9 -3 -1 -0 -3 -1 -3 -2 13 23 18 11 -4 6 4 -1 1 -3 -16 -34 -28 -10
0 -3 2 1 2 1 1 -0 -1 -1 -2 -4 -2 -11 -1 1 -0 -2 -1 -1 4 4 1 -1 2 3 3 3 -3 11 0 5 -10 2 5 -2 -4 -6 16 2 -3 -1 13 1
1 1 -2 -16 -10 -3 2 1 0 -1 -1 -3 -5 -3 -2 -2 -1 -2 -1 -2 0 -3 -0 3 3 -7 -4 -2 -3 5 -5 -5 -11 -10 -2 6 8 -9 -11 -6 4 -0 2 -2
-4 2 6 -3 -2 2 -0 -0 -0 2 -5 -5 -7 -1 -4 -3 -2 -5 -6 1 6 -0 1 1 -1 0 -2 -6 0 4 -1 1 8 6 0 -5 1 -6 -0 7 2 11 5 -1
-2 -5 1 -3 0 1 2 -1 0 -0 -0 1 1 -2 -3 -4 5 2 -6 3 -3 -2 -3 1 3 -0 -1 -1 -1 -4 3 -1 4 2 -2 2 0 -1 4 6 5 3 1 3
-3 1 -3 -10 1 4 7 -10 -1 -1 0 -5 -1 -12 -1 -1 -0 -3 -5 -1 -3 -4 -2 -0 -6 -8 -5 -3 -2 -5 -8 -2 2 4 3 -3 1 0 1 -1 2 3 -0 1
-1 1 1 -2 2 8 -47 -0 -2 -1 -3 0 1 -1 -3 -5 -9 -3 1 -2 -6 -4 0 -0 -3 -4 -1 3 1 4 5 2 -1 -2 -0 0 1 6 1 1 -0 -1 -0 -1
-2 -2 -2 4 -0 -10 4 -3 -1 -2 -13 -2 -1 -1 -1 -1 6 -1 2 -2 -4 -1 5 -0 8 3 2 4 2 1 0 2 1 -2 -2 -3 -0 4 1 3 2 3 1 2
-1 -2 -6 -0 5 -5 -4 -3 0 -1 -5 -1 -0 -1 -1 0 -1 -7 -5 -3 -2 5 -0 -2 -2 0 5 0 1 1 1 -1 2 4 3 3 4 3 3 2 -0 2 5 1
0 1 -1 -0 -0 -7 -4 -1 3 9 -16 -0 2 1 1 -3 -11 -6 2 0 10 1 -1 -5 -0 -1 1 2 2 1 3 -0 3 4 4 3 6 4 4 3 2 2 0 1
-5 -3 0 0 1 -7 -1 -4 -7 -3 3 2 -3 5 -5 3 -2 2 -0 -1 -9 -5 -7 -2 0 2 3 4 4 2 2 3 3 1 2 2 2 1 -1 1 -0 0 0 2
-1 -9 -8 -15 -16 -7 3 -6 0 -3 3 -2 3 -2 -2 -0 7 -9 -0 6 3 1 -7 -1 -0 0 0 1 3 2 -0 -2 -1 0 1 2 3 3 1 -0 1 1 3 3
-1 0 -1 -0 -6 -3 0 -1 -5 -14 -1 4 8 3 2 1 -3 11 8 -4 -6 -0 4 1 -0 -1 -1 -1 1 2 0 3 3 4 4 3 3 4 4 3 3 3 2 3
-10 1 -5 -4 -2 -0 0 -5 2 -10 -1 7 -12 -2 -7 0 -0 5 3 2 -2 -1 -2 2 -2 -1 0 1 1 1 -0 1 0 3 2 -0 1 0 -0 4 6 9 7 9
0 -2 -3 -7 -5 -5 -5 -7 -11 2 -1 0 4 -6 -10 2 -4 10 7 11 6 7 1 4 4 1 -0 1 2 0 -0 -1 -2 -0 1 1 1 1 2 2 -2 -0 4 4
Height
1477 1485 1483 1485 1484 1481 1486 1487 1488 1476 1470 1470 1472 1476 1470 1468 1472 1473 1474 1476 1475 1477 1484 1484 1484 1484 1487 1490 1493 1495 1498 1502 1506 1511 1514 1519 1522 1524 1529 1533 1537 1541 1545 1549
1480 1475 1470 1476 1479 1482 1484 1485 1482 1471 1461 1468 1465 1467 1463 1465 1465 1468 1472 1475 1473 1477 1481 1483 1483 1484 1484 1487 1492 1496 1499 1503 1507 1509 1513 1517 1520 1523 1528 1532 1534 1539 1541 1544
1473 1464 1463 1471 1474 1479 1477 1480 1477 1473 1462 1461 1462 1467 1465 1463 1464 1468 1469 1471 1471 1471 1474 1479 1480 1483 1484 1485 1487 1491 1495 1499 1503 1508 1511 1515 1519 1523 1525 1527 1529 1534 1537 1540
1469 1460 1465 1468 1469 1471 1479 1465 1464 1465 1469 1482 1462 1487 1466 1459 1456 1464 1464 1467 1467 1468 1473 1475 1476 1477 1480 1481 1485 1488 1492 1497 1501 1506 1508 1511 1511 1514 1518 1524 1529 1532 1535 1538
1458 1457 1460 1464 1460 1460 1465 1459 1460 1459 1465 1470 1468 1480 1465 1453 1457 1455 1455 1459 1460 1459 1464 1468 1470 1473 1476 1481 1483 1487 1491 1494 1497 1500 1504 1507 1509 1514 1517 1522 1525 1529 1531 1533
1452 1450 1453 1452 1452 1454 1454 1454 1457 1461 1470 1486 1469 1475 1468 1459 1447 1442 1444 1451 1454 1456 1460 1463 1468 1472 1475 1478 1482 1485 1488 1491 1495 1498 1503 1506 1509 1512 1515 1519 1522 1525 1527 1529
1452 1448 1447 1448 1453 1448 1452 1462 1485 1491 1490 1488 1463 1468 1459 1439 1430 1429 1433 1440 1446 1450 1456 1459 1462 1465 1470 1474 1478 1482 1485 1488 1492 1495 1500 1503 1507 1510 1511 1514 1517 1519 1521 1523
1453 1459 1444 1438 1443 1448 1450 1456 1484 1484 1497 1482 1462 1468 1448 1427 1422 1423 1425 1430 1438 1445 1449 1450 1452 1456 1462 1467 1471 1477 1480 1484 1488 1491 1496 1500 1503 1505 1506 1509 1511 1513 1515 1517
1448 1445 1430 1430 1434 1436 1445 1457 1445 1466 1470 1485 1470 1452 1435 1425 1422 1424 1426 1431 1436 1439 1440 1443 1447 1450 1454 1460 1462 1465 1471 1476 1480 1485 1491 1492 1495 1498 1501 1504 1506 1508 1510 1512
1434 1445 1428 1427 1430 1427 1431 1435 1459 1464 1476 1483 1467 1461 1452 1430 1423 1422 1425 1426 1428 1431 1435 1436 1440 1444 1447 1451 1456 1462 1464 1465 1469 1477 1481 1485 1491 1496 1498 1499 1501 1503 1504 1507
1429 1435 1434 1427 1424 1432 1433 1441 1442 1448 1458 1477 1483 1465 1433 1428 1419 1422 1423 1421 1421 1425 1428 1433 1436 1438 1442 1447 1453 1451 1457 1462 1467 1471 1475 1485 1488 1490 1493 1496 1497 1497 1492 1498
1421 1428 1437 1428 1418 1416 1420 1427 1435 1455 1456 1458 1467 1451 1423 1423 1419 1418 1420 1420 1419 1420 1423 1427 1430 1433 1437 1442 1446 1447 1450 1460 1469 1474 1481 1481 1485 1488 1489 1490 1486 1486 1485 1492
1419 1426 1439 1432 1424 1415 1421 1420 1422 1431 1440 1448 1467 1451 1420 1421 1421 1419 1419 1420 1417 1418 1420 1423 1426 1428 1431 1435 1440 1444 1448 1453 1458 1464 1465 1472 1476 1478 1481 1480 1481 1485 1483 1484
1420 1421 1416 1420 1418 1416 1417 1415 1413 1419 1449 1442 1444 1432 1424 1421 1417 1414 1414 1416 1416 1416 1418 1420 1422 1424 1427 1430 1433 1437 1440 1445 1449 1453 1456 1459 1461 1465 1466 1472 1474 1476 1477 1479
1427 1423 1410 1405 1405 1408 1410 1411 1411 1413 1417 1431 1428 1427 1420 1417 1413 1408 1410 1411 1412 1413 1415 1417 1418 1419 1422 1424 1427 1430 1434 1437 1442 1446 1448 1449 1452 1455 1459 1462 1466 1469 1472 1476
1427 1425 1410 1408 1404 1401 1406 1405 1406 1406 1408 1411 1412 1414 1405 1402 1402 1405 1407 1405 1407 1408 1410 1412 1414 1415 1417 1420 1423 1425 1428 1432 1435 1438 1441 1443 1446 1450 1454 1456 1461 1465 1468 1471
1433 1436 1433 1415 1409 1404 1415 1397 1402 1401 1401 1404 1415 1407 1397 1396 1396 1397 1399 1400 1399 1401 1403 1407 1409 1411 1412 1414 1416 1418 1422 1426 1429 1432 1435 1439 1442 1446 1450 1453 1457 1460 1464 1466
1425 1434 1438 1433 1421 1422 1383 1388 1393 1396 1393 1391 1395 1395 1391 1390 1388 1389 1389 1391 1392 1393 1396 1401 1405 1406 1408 1409 1411 1415 1418 1420 1424 1428 1432 1436 1441 1443 1445 1449 1452 1455 1458 1460
1417 1426 1439 1433 1419 1398 1389 1385 1387 1391 1394 1386 1387 1388 1386 1385 1387 1384 1382 1383 1385 1387 1390 1394 1398 1400 1402 1405 1408 1412 1415 1419 1421 1423 1427 1432 1436 1438 1440 1443 1446 1449 1453 1456
1421 1424 1429 1438 1427 1408 1385 1381 1378 1380 1398 1380 1380 1383 1384 1383 1393 1385 1377 1377 1379 1384 1388 1392 1396 1399 1401 1404 1406 1409 1411 1415 1418 1420 1424 1428 1431 1434 1435 1438 1442 1447 1451 1453
1425 1425 1427 1427 1423 1408 1384 1380 1376 1395 1391 1380 1379 1375 1380 1382 1378 1373 1374 1374 1377 1381 1385 1390 1394 1397 1399 1401 1403 1406 1409 1412 1416 1420 1423 1425 1427 1430 1434 1437 1441 1444 1446 1450
1417 1420 1421 1426 1426 1410 1374 1375 1383 1387 1378 1375 1374 1375 1379 1375 1373 1369 1371 1373 1376 1381 1382 1387 1389 1392 1396 1399 1400 1403 1407 1410 1413 1417 1420 1422 1426 1431 1434 1435 1437 1441 1444 1447
1408 1396 1409 1406 1405 1379 1369 1376 1378 1383 1382 1380 1374 1375 1375 1378 1371 1370 1370 1371 1374 1376 1379 1383 1385 1389 1393 1396 1399 1402 1403 1407 1410 1413 1417 1420 1425 1428 1431 1434 1436 1439 1443 1445
1391 1390 1393 1392 1381 1374 1373 1372 1371 1377 1380 1377 1375 1373 1375 1378 1376 1371 1368 1371 1374 1376 1377 1379 1382 1385 1389 1392 1395 1399 1402 1405 1409 1413 1417 1421 1426 1428 1430 1434 1438 1441 1443 1445
1382 1383 1381 1382 1377 1374 1373 1373 1371 1371 1374 1372 1375 1375 1374 1372 1372 1373 1369 1367 1368 1372 1376 1378 1380 1384 1388 1390 1393 1397 1400 1404 1408 1413 1416 1420 1424 1428 1431 1435 1439 1443 1446 1448
1379 1378 1381 1379 1368 1367 1366 1366 1364 1367 1370 1371 1370 1370 1373 1373 1369 1368 1366 1365 1366 1368 1373 1377 1379 1383 1386 1390 1393 1395 1399 1404 1409 1413 1416 1420 1424 1428 1432 1435 1438 1441 1445 1447